Location: Key Biscayne
(25.6930°N, 80.1630°W)
Time: 04:35:10
(UTC-05:00)

N. Korean satellite - Pass Details

Date: 12 November 2017
Orbit: 460 x 514 km, 97.2° (Epoch: 23 November)

Event Time Altitude Azimuth Distance (km) Brightness Sun altitude
Rises 19:30:11 0° 211° (SSW) 2,470 10.7 -26.4°
Reaches altitude 10° 19:33:49 10° 252° (WSW) 1,601 10.1 -27.3°
Maximum altitude 19:34:33 11° 265° (W) 1,570 10.1 -27.4°
Drops below altitude 10° 19:35:17 10° 278° (W) 1,605 10.1 -27.6°
Sets 19:38:57 0° 319° (NW) 2,491 10.6 -28.4°
